CST,Max TemperatureF,Mean TemperatureF,Min TemperatureF,Max Dew PointF,MeanDew PointF,Min DewpointF,Max Humidity, Mean Humidity, Min Humidity, Max Sea Level PressureIn, Mean Sea Level PressureIn, Min Sea Level PressureIn, Max VisibilityMiles, Mean VisibilityMiles, Min VisibilityMiles, Max Wind SpeedMPH, Mean Wind SpeedMPH, Max Gust SpeedMPH,PrecipitationIn, CloudCover, Events, WindDirDegrees
2012-12-1,49,41,30,46,37,30,100,92,78,30.00,29.80,29.70,7,4,2,16,9,22,0.00,5,,181
2012-12-2,51,36,21,42,33,22,100,87,61,29.97,29.87,29.72,10,6,2,12,4,17,0.00,0,,149
2012-12-3,54,47,40,54,41,29,100,82,61,29.93,29.70,29.55,10,7,0,26,12,36,0.00,3,Fog,228
2012-12-4,39,28,17,29,20,14,86,72,55,30.38,30.19,29.95,10,10,10,17,9,25,0.00,0,,300
2012-12-5,45,30,16,32,21,13,88,67,53,30.38,30.10,29.78,10,10,10,22,9,29,0.00,2,,126
2012-12-6,46,34,21,37,30,19,91,72,60,30.00,29.86,29.75,10,10,10,21,13,28,0.00,2,Rain,268
2012-12-7,31,25,19,29,25,18,99,93,80,30.05,30.02,30.00,10,7,1,12,4,,0.00,6,Snow,360
2012-12-8,31,28,24,32,27,25,100,98,88,30.04,30.00,29.94,10,6,0,15,5,23,0.00,7,Snow,97
2012-12-9,34,24,14,34,29,11,100,97,88,29.97,29.88,29.78,10,2,0,25,13,36,0.00,8,Rain-Snow,47
2012-12-10,14,3,-8,11,-2,-12,89,84,78,29.98,29.91,29.79,10,10,5,18,9,,0.00,3,Snow,275
2012-12-11,19,8,-2,17,7,-5,100,91,85,29.96,29.85,29.77,10,9,4,9,3,,0.00,4,Snow,257
2012-12-12,34,18,1,30,21,-1,100,88,75,29.96,29.85,29.80,10,10,7,10,5,,0.03,1,,132
2012-12-13,31,20,9,27,20,8,98,89,79,30.11,29.98,29.87,10,8,2,10,3,,0.00,0,,347
2012-12-14,37,23,9,33,22,8,100,91,80,30.11,29.94,29.72,10,6,0,15,4,17,0.00,2,Fog,88
2012-12-15,38,36,34,37,35,32,100,97,81,29.73,29.57,29.48,10,3,0,13,9,17,0.25,8,Fog-Rain-Snow,46
2012-12-16,31,24,16,32,21,16,100,97,92,29.81,29.73,29.58,10,8,2,16,11,20,0.00,8,,292
2012-12-17,24,22,20,24,22,20,100,99,98,29.80,29.73,29.66,10,6,2,7,2,,0.00,8,Snow,80
2012-12-18,30,27,24,30,26,24,100,99,93,29.79,29.68,29.61,7,4,1,14,6,,0.00,8,Snow,97
2012-12-19,30,20,9,29,21,8,100,93,85,30.03,29.93,29.81,10,8,0,15,5,16,0.02,4,Fog-Snow,263
2012-12-20,24,16,9,22,16,6,94,89,83,30.09,29.96,29.91,10,9,5,26,16,32,0.00,4,,323
2012-12-21,12,6,0,7,3,-2,92,86,79,30.27,30.20,30.09,10,10,10,17,9,18,0.00,0,,279
2012-12-22,23,14,5,18,11,3,92,85,76,30.14,30.02,29.96,10,10,10,13,5,,0.00,1,,329
2012-12-23,17,14,10,16,11,8,94,85,79,30.12,30.06,29.99,10,10,7,14,9,18,0.00,2,,29
2012-12-24,16,8,0,14,7,-4,90,82,72,30.28,30.11,29.99,10,9,0,18,9,22,0.00,3,Snow,334
2012-12-25,4,0,-4,-1,-5,-8,86,83,78,30.47,30.41,30.29,10,10,10,12,7,,0.00,0,,298
2012-12-26,14,7,0,7,2,-4,88,81,71,30.38,30.29,30.21,10,10,10,6,3,,0.00,3,,21
2012-12-27,19,10,1,18,11,-2,96,88,79,30.23,30.17,30.12,10,7,1,9,3,,0.00,7,Snow,71
2012-12-28,23,14,5,19,16,3,100,92,82,30.11,30.04,30.00,10,7,2,9,6,,0.01,5,Snow,2
2012-12-29,14,4,-6,13,5,-9,95,91,85,30.15,30.08,30.02,10,8,2,12,7,,0.00,4,Snow,261
2012-12-30,23,8,-6,19,6,-9,96,89,84,30.15,30.01,29.86,10,10,7,15,3,18,0.00,0,Snow,149
2012-12-31,16,3,-10,15,2,-14,92,78,69,30.25,30.16,30.01,10,10,10,23,11,33,0.00,1,Snow,301